Probability
0 0 0 0 0 0 0 0 0 0 0 0 0 0 0 0 0 0 0 0 0 0 0 0 0 0 0 0 0 0 0 0 0 0 0 0 0 0 0 0 0 0 0
0 0 0 0 0 0 0 0 0 0 0 0 0 0 0 0 0 0 0 0 0 0 0 0 0 0 0 0 0 0 0 0 0 0 0 0 0 0 0 0 0 0 0
0 0 0 0 0 0 0 0 0 0 0 0 0 0 0 0 0 0 0 0 0 0 0 0 0 0 0 0 0 0 0 0 0 0 0 0 0 0 0 0 0 0 0
0 0 0 0 0 0 0 0 0 0 0 0 0 0 0 0 0 0 0 0 0 0 0 0 0 0 0 0 0 0 0 0 0 0 0 0 0 0 0 0 0 0 0
0 0 0 0 0 0 0 0 0 0 0 0 0 0 0 0 0 0 0 0 0 0 0 0 0 0 0 0 0 0 0 0 0 0 0 0 0 0 0 0 0 0 0
1 1 1 2 1 1 1 1 0 0 0 0 0 0 0 0 0 0 0 0 0 0 0 0 0 0 0 0 0 0 0 0 0 0 0 0 0 0 0 0 0 0 0
2 2 3 3 2 2 2 2 1 0 0 0 0 0 0 0 0 0 0 0 0 0 0 0 0 0 0 0 0 0 0 0 0 0 0 0 0 0 0 0 0 0 0
2 2 2 3 2 2 2 2 1 0 0 0 0 0 0 0 0 0 0 0 0 0 0 0 0 0 0 0 0 0 0 0 0 0 0 0 0 0 0 0 0 0 0
1 1 1 1 1 1 1 1 0 0 0 0 0 0 0 0 0 0 0 0 0 0 0 0 0 0 0 0 0 0 0 0 0 0 0 0 0 0 0 0 0 0 0
0 0 0 0 0 0 0 0 0 0 0 0 0 0 0 0 0 0 0 0 0 0 0 0 0 0 0 0 0 0 0 0 0 0 0 0 1 1 0 0 0 0 0
0 0 0 0 0 0 0 0 0 0 0 0 0 0 0 0 0 0 0 0 0 0 0 0 0 0 0 0 0 0 0 0 0 0 0 0 1 1 1 1 1 1 0
0 0 0 0 0 0 0 1 0 0 0 0 0 0 0 0 0 0 0 0 0 0 0 0 0 0 0 0 0 0 0 0 0 0 0 0 1 1 1 1 2 1 1
0 0 0 0 0 0 0 0 0 0 0 0 0 0 0 0 0 0 0 0 0 0 0 0 0 0 0 0 0 0 0 0 0 0 0 0 0 0 0 0 1 1 0
0 0 0 0 0 0 0 0 0 0 0 0 0 0 0 0 0 0 0 0 0 0 0 0 0 0 0 0 0 0 0 0 0 0 0 0 0 0 0 0 0 0 0
0 0 0 0 0 0 0 0 0 0 0 0 0 0 0 0 0 0 0 0 0 0 0 0 0 0 0 0 0 0 0 0 0 0 0 0 0 0 0 0 0 0 0
0 0 0 0 0 0 0 0 0 0 0 0 0 0 0 0 0 0 0 0 0 0 0 0 0 0 0 0 0 0 0 0 0 0 0 0 0 0 0 0 0 0 0
0 0 0 0 0 0 0 0 0 0 0 0 0 0 0 0 0 0 0 0 0 0 0 0 0 0 0 0 0 0 0 0 0 0 0 0 0 0 0 0 0 0 0
0 0 0 0 0 0 0 0 0 0 0 0 0 0 0 0 0 0 0 0 0 0 0 0 0 0 0 0 0 0 0 0 0 0 0 0 0 0 0 0 0 0 0
0 0 0 0 0 0 0 0 0 0 0 0 0 0 0 0 0 0 0 0 0 0 0 0 0 0 0 0 0 0 0 0 0 0 0 0 0 0 0 0 0 0 0
0 0 0 0 0 0 0 0 0 0 0 0 0 0 0 0 0 0 0 0 0 0 0 0 0 0 0 0 0 0 0 0 0 0 0 0 0 0 0 0 0 0 0
0 0 0 0 0 0 0 0 0 0 0 0 0 0 0 0 0 0 0 0 0 0 0 0 0 0 0 0 0 0 0 0 0 0 0 0 0 0 0 0 0 0 0
0 0 0 0 0 0 0 0 0 0 0 0 0 0 0 0 0 0 0 0 0 0 0 0 0 0 0 0 0 0 0 0 0 0 0 0 0 0 0 0 0 0 0
0 0 0 0 0 0 0 0 0 0 0 0 0 0 0 0 0 0 0 0 0 0 0 0 0 0 0 0 0 0 0 0 0 0 0 0 0 0 0 0 0 0 0
0 0 0 0 0 0 0 0 0 0 0 0 0 0 0 0 0 0 0 0 0 0 0 0 0 0 0 0 0 0 0 0 0 0 0 0 0 0 0 0 0 0 0
0 0 0 0 0 0 0 0 0 0 0 0 0 0 0 0 0 0 0 0 0 0 0 0 0 0 0 0 0 0 0 0 0 0 0 0 0 0 0 0 0 0 0
0 0 0 0 0 0 0 0 0 0 0 0 0 0 0 0 0 0 0 0 0 0 0 0 0 0 0 0 0 0 0 0 0 0 0 0 0 0 0 0 0 0 0
Wind_Speed
4 4 3 3 4 3 4 4 4 4 5 5 5 6 6 6 6 5 3 6 9 10 11 11 10 9 9 8 7 6 6 5 4 4 3 3 2 1 1 1 1 2 3
4 4 4 4 4 4 4 5 6 5 5 5 6 7 7 7 7 7 6 6 10 12 13 13 13 12 12 11 10 10 9 8 8 7 6 5 4 4 3 2 2 2 3
6 5 5 5 5 5 6 5 6 6 5 6 8 8 7 8 8 9 8 7 7 11 14 15 16 15 14 14 13 13 12 11 11 10 9 8 7 6 5 4 4 3 2
7 6 5 5 6 5 5 5 6 6 6 7 7 7 7 6 9 9 8 8 8 7 10 15 17 17 17 16 16 15 15 14 13 13 12 11 10 9 8 7 6 5 4
7 7 6 6 6 5 5 5 6 6 7 7 7 7 7 7 8 8 10 10 10 9 9 9 14 15 16 18 18 18 17 16 16 15 14 14 13 12 11 10 9 8 7
7 7 6 7 7 6 6 6 7 7 7 7 7 7 8 8 8 9 10 9 9 10 10 10 8 10 16 19 20 20 19 18 18 18 17 16 15 14 14 13 12 11 9
6 6 6 7 6 6 8 8 7 8 7 5 5 7 8 10 10 8 8 8 8 8 8 9 8 8 7 13 18 20 20 20 19 19 19 18 18 17 16 15 14 13 12
4 4 6 6 6 6 8 8 8 6 5 5 5 5 6 7 7 7 6 6 7 6 7 7 8 8 8 6 7 13 19 21 21 20 20 20 20 19 18 18 17 16 15
3 4 5 5 5 6 6 8 8 9 8 7 6 6 6 6 4 3 5 5 6 5 5 5 7 8 8 7 8 8 11 16 20 20 20 20 20 21 20 20 19 18 16
2 3 4 5 5 5 6 7 7 7 8 8 6 7 8 7 5 5 4 4 5 6 6 5 5 6 7 6 6 8 8 12 17 20 20 20 19 20 21 21 20 20 18
1 2 3 4 4 4 6 7 7 7 7 8 7 6 7 7 8 7 7 6 5 4 5 5 5 5 5 5 5 6 8 12 15 18 19 20 19 19 20 20 21 20 19
1 1 3 3 4 4 5 6 6 7 7 8 7 6 6 6 5 6 7 6 5 4 5 4 4 4 4 4 5 7 9 11 13 15 17 18 18 17 17 16 16 19 18
1 2 3 3 3 4 5 5 5 5 6 6 6 5 4 4 4 4 6 6 5 4 4 3 2 3 4 4 5 9 8 10 12 14 15 16 15 13 12 13 13 13 15
2 2 3 3 3 4 4 4 3 4 3 3 3 3 2 2 2 2 3 4 4 4 5 4 1 4 5 5 8 9 6 9 11 12 14 14 12 9 7 7 8 8 10
1 2 2 2 2 3 3 3 2 2 2 2 2 2 1 2 2 2 2 2 3 4 4 1 1 4 5 5 8 6 6 10 11 11 10 9 6 3 3 1 2 5 8
0 1 1 1 2 3 3 2 2 3 3 3 3 4 4 3 3 3 2 2 1 3 3 1 2 4 5 5 7 6 6 9 10 10 8 7 4 3 2 2 3 6 8
0 1 1 2 2 3 3 3 3 3 4 5 5 5 5 5 3 3 3 2 2 1 3 0 1 3 4 6 6 5 6 6 6 11 10 8 6 5 5 5 6 7 7
2 2 2 2 3 3 3 3 4 4 5 5 5 5 5 4 5 4 3 3 2 2 2 1 1 2 3 5 5 5 5 5 6 11 11 10 9 8 8 7 5 4 4
2 2 3 3 3 3 4 4 5 5 6 6 6 6 5 5 5 4 4 3 2 2 2 1 1 2 2 3 4 4 4 5 5 7 9 10 11 10 8 6 4 2 1
3 3 4 4 4 4 4 4 5 6 6 6 6 6 6 6 5 5 4 4 3 3 2 1 1 1 2 3 3 3 3 4 4 5 6 6 7 7 7 6 5 3 2
3 3 4 4 4 4 4 4 5 5 5 6 6 6 8 8 9 7 5 5 4 3 2 1 1 1 2 3 3 3 3 3 2 3 4 3 3 3 2 3 3 3 4
4 4 4 4 4 4 6 6 5 5 5 5 5 5 5 6 8 9 10 9 7 4 3 2 1 2 2 3 3 3 3 3 2 3 4 3 2 3 2 2 4 6 7
4 4 4 5 5 6 8 7 6 5 5 4 4 3 3 4 4 4 5 6 7 8 6 3 3 3 3 3 4 4 3 4 4 4 5 3 2 3 2 3 5 7 8
4 4 4 4 4 5 7 7 7 5 4 4 3 2 2 2 3 3 3 3 3 3 4 3 3 3 3 3 3 3 4 4 4 2 3 3 3 4 4 4 2 5 6
4 4 3 3 3 3 5 6 5 3 2 2 1 1 1 1 2 1 2 2 1 1 2 3 4 4 4 4 5 3 3 4 4 2 1 3 4 5 5 3 1 3 5
4 4 3 2 1 1 3 5 4 1 1 1 1 1 1 3 3 1 2 3 3 2 2 2 2 1 2 1 2 3 3 3 3 3 1 3 4 4 5 3 2 3 5
Wind_Direction
213 217 223 222 231 234 231 240 249 255 262 266 265 269 272 269 268 263 250 219 243 257 259 253 241 236 233 233 235 230 225 225 224 222 224 223 217 204 170 129 98 87 84
227 231 234 233 238 237 244 250 255 262 266 265 269 267 266 266 263 263 264 237 225 240 250 252 247 244 239 236 234 230 224 224 224 223 224 223 220 213 202 194 173 140 122
234 238 246 244 243 243 246 252 259 263 267 266 265 266 266 266 264 262 259 261 246 226 235 245 247 246 244 240 237 233 226 223 224 223 223 222 219 217 211 207 200 186 166
234 242 246 249 251 250 249 251 258 259 259 260 266 266 263 261 264 265 262 254 255 251 232 233 242 247 247 245 242 238 231 224 222 223 223 222 220 219 217 213 210 206 199
236 239 245 252 254 252 252 253 256 259 266 267 269 273 271 267 266 262 259 257 254 251 255 233 229 241 247 248 247 245 239 230 223 222 222 222 221 220 220 216 213 212 209
236 241 246 253 255 250 250 248 252 253 262 273 277 272 270 266 261 260 263 262 256 254 255 259 247 237 236 245 249 249 248 241 230 224 222 221 221 220 221 220 216 215 214
242 241 247 254 251 251 255 256 255 258 256 256 265 270 264 257 257 256 256 261 260 258 258 258 258 261 247 236 243 249 251 249 242 232 225 223 221 220 221 221 219 218 217
255 253 253 255 253 253 256 257 255 254 254 236 247 275 279 269 241 240 249 253 263 262 258 260 262 261 265 264 249 245 251 254 253 245 235 227 223 222 221 221 221 219 218
267 260 262 263 262 258 260 261 256 252 258 250 236 249 269 274 297 237 240 252 263 268 268 271 270 269 268 266 269 253 251 257 259 258 250 239 230 225 222 222 221 221 219
290 287 279 274 269 264 264 266 263 260 260 260 248 240 252 274 277 281 250 254 268 273 278 276 276 277 276 274 272 279 276 270 265 263 261 253 242 232 227 223 222 221 220
295 311 300 287 279 275 273 273 271 264 259 261 259 251 247 249 249 261 275 275 264 265 278 288 291 295 298 291 289 303 299 282 275 271 267 262 255 244 235 230 225 222 219
256 319 315 299 292 287 284 280 275 268 263 261 260 255 253 251 248 249 263 271 274 282 286 292 301 316 325 317 319 335 310 296 288 281 275 271 266 260 247 238 232 224 218
264 318 316 306 301 296 291 286 279 276 275 271 267 265 263 267 275 268 270 277 277 279 278 277 333 352 353 341 350 348 319 312 301 292 285 280 278 279 268 250 238 225 214
302 316 312 311 311 308 302 293 285 287 291 288 291 287 280 289 289 275 271 274 274 267 259 264 49 27 7 355 1 341 334 337 321 309 301 293 290 290 283 268 251 225 204
305 310 324 328 338 338 330 315 312 325 335 349 346 343 346 5 2 346 318 281 269 272 267 295 41 29 4 358 358 345 345 350 339 329 322 319 317 315 294 261 233 204 176
314 309 6 12 18 19 12 23 34 31 54 47 38 48 47 36 35 28 18 4 315 279 272 39 22 3 357 357 1 356 359 355 360 353 351 355 12 34 73 122 155 151 152
75 60 54 52 48 45 44 61 66 65 72 67 58 60 56 47 48 39 36 37 27 318 265 344 27 357 358 1 1 7 10 9 13 21 22 28 46 73 93 107 126 135 144
90 79 80 74 65 59 59 71 77 71 73 71 65 65 58 56 56 46 42 44 36 2 299 269 357 357 4 3 358 8 14 18 19 27 32 40 51 68 76 81 94 116 147
109 96 90 85 80 77 77 78 85 83 78 73 67 65 60 58 58 51 46 40 28 18 359 319 12 8 1 2 354 5 17 19 22 22 32 41 47 52 56 60 67 91 140
117 104 95 92 90 89 87 89 92 92 85 75 67 60 54 51 51 47 43 35 24 26 32 43 45 24 11 359 354 355 360 11 12 12 24 30 34 38 42 41 37 27 340
114 109 106 102 101 94 90 100 99 98 95 86 73 63 55 49 48 47 40 29 21 19 26 35 36 24 21 4 3 350 341 338 14 9 349 6 360 359 8 12 0 332 300
117 111 109 106 98 91 99 98 105 103 95 91 82 68 61 51 48 53 51 43 34 26 23 15 20 23 20 4 353 348 342 333 332 21 339 330 335 325 334 329 331 307 288
126 119 112 107 103 101 104 101 96 96 93 84 78 70 63 56 44 45 55 53 52 48 36 7 22 19 5 360 350 339 347 334 325 344 326 308 327 312 324 315 317 304 290
138 129 122 119 114 109 110 110 106 96 94 86 74 64 59 49 41 14 28 34 37 44 31 11 13 4 348 336 320 313 319 305 290 296 317 299 324 316 317 303 332 314 300
141 137 133 129 123 120 130 134 131 126 115 110 92 41 354 9 49 357 353 342 329 54 53 18 4 357 350 339 323 303 310 311 306 320 353 300 319 317 305 293 273 268 288
151 152 144 149 165 182 166 166 168 174 164 176 191 223 323 330 343 306 302 307 316 334 330 317 295 281 298 328 324 303 300 294 299 308 24 307 314 331 314 299 281 273 272